TWISTERF5 Weather Reports


time (UTC)temp
C
wind
direction
speed
KPH
gust
KPH
rain 1hr
cm
rain 24hr
cm
rain mn
cm
humidity
%
barometer
mb
20260506155515 6 0 0.0 4.8 0.20 1.57 0.79 87 1009.0
20260506155016 6 271 1.6 4.8 0.23 1.57 0.79 86 1009.2
20260506154532 6 0 0.0 3.2 0.20 1.55 0.76 86 1009.3
20260506154016 6 279 0.0 4.8 0.20 1.52 0.74 86 1009.4
20260506153517 6 285 0.0 4.8 0.20 1.52 0.74 86 1009.4
20260506153029 6 294 1.6 4.8 0.20 1.47 0.71 86 1009.4
20260506152515 6 0 1.6 4.8 0.20 1.47 0.71 86 1009.4
20260506152017 6 300 1.6 4.8 0.20 1.47 0.69 86 1009.4
20260506151543 6 0 0.0 4.8 0.18 1.45 0.66 87 1009.3
20260506151015 6 298 0.0 4.8 0.18 1.42 0.64 86 1009.5
20260506150519 6 296 1.6 6.4 0.18 1.42 0.64 86 1009.4
20260506150033 6 0 1.6 6.4 0.18 1.40 0.61 85 1009.4
20260506145516 6 292 1.6 9.7 0.15 1.52 0.58 86 1009.5
20260506145019 6 286 3.2 9.7 0.15 1.47 0.56 86 1009.5
20260506144532 6 273 1.6 4.8 0.18 1.47 0.56 86 1009.6
20260506144025 6 283 1.6 4.8 0.15 1.47 0.53 86 1009.6
20260506143519 6 0 1.6 4.8 0.18 1.47 0.53 86 1009.6
20260506143043 6 254 1.6 6.4 0.18 1.45 0.51 86 1009.6
20260506142515 6 250 1.6 6.4 0.20 1.45 0.51 86 1009.5
20260506142015 6 258 3.2 6.4 0.20 1.42 0.48 87 1009.7
20260506141529 6 286 1.6 6.4 0.23 1.42 0.48 87 1009.7
20260506141016 6 277 1.6 8.0 0.20 1.40 0.46 86 1009.6
20260506140515 6 246 3.2 8.0 0.23 1.40 0.46 86 1009.7
20260506140036 6 280 1.6 11.3 0.20 1.37 0.43 86 1009.7
20260506135515 6 0 3.2 11.3 0.23 1.45 0.43 86 1009.7
20260506135018 6 282 3.2 9.7 0.20 1.42 0.41 86 1009.7
20260506134531 6 277 3.2 9.7 0.18 1.40 0.38 86 1009.6
20260506134014 6 276 1.6 4.8 0.20 1.40 0.38 86 1009.5
20260506133515 6 292 0.0 6.4 0.18 1.37 0.36 87 1009.5
20260506133031 6 0 0.0 9.7 0.18 1.32 0.33 86 1009.6
20260506132518 6 305 1.6 11.3 0.18 1.32 0.30 85 1009.4
20260506132014 6 297 3.2 11.3 0.15 1.30 0.28 85 1009.5
20260506131532 6 271 3.2 6.4 0.15 1.27 0.25 86 1009.5
20260506131019 6 282 1.6 6.4 0.18 1.27 0.25 85 1009.3
20260506130519 6 236 1.6 6.4 0.15 1.24 0.23 85 1009.3
20260506130030 6 278 1.6 6.4 0.15 1.24 0.23 85 1009.2
20260506125515 7 287 1.6 6.4 0.15 1.22 0.20 85 1009.2
20260506125018 7 277 1.6 6.4 0.15 1.22 0.20 85 1009.3
20260506124529 7 304 1.6 6.4 0.15 1.19 0.18 86 1009.2
20260506124015 7 303 1.6 6.4 0.15 1.19 0.18 86 1009.2
20260506123515 7 291 1.6 6.4 0.15 1.19 0.18 85 1009.2
20260506123034 7 304 3.2 6.4 0.13 1.17 0.15 85 1009.3
20260506122514 7 300 1.6 6.4 0.10 1.14 0.13 85 1009.4
20260506122013 7 0 1.6 4.8 0.08 1.12 0.10 85 1009.5
20260506121533 7 233 0.0 3.2 0.10 1.12 0.10 85 1009.6
20260506121017 7 279 0.0 6.4 0.08 1.09 0.08 84 1009.7
20260506120518 7 308 1.6 6.4 0.08 1.09 0.08 84 1009.7
20260506120032 7 279 0.0 4.8 0.05 1.07 0.05 84 1009.8
20260506115515 7 284 1.6 6.4 0.05 1.07 0.05 84 1009.8
20260506115014 7 263 0.0 6.4 0.03 1.04 0.03 84 1009.7
20260506114540 7 301 1.6 8.0 0.03 1.04 0.03 84 1009.6
20260506114015 7 297 1.6 8.0 0.03 1.04 0.03 84 1009.5
20260506113515 7 281 1.6 9.7 0.03 1.04 0.03 84 1009.5
20260506113030 7 305 1.6 9.7 0.03 1.04 0.03 84 1009.4
20260506112516 7 292 1.6 9.7 0.03 1.04 0.03 84 1009.2
20260506112012 7 261 1.6 9.7 0.03 1.04 0.03 84 1009.2
20260506111537 7 271 0.0 9.7 0.00 1.02 0.00 84 1009.3
20260506111015 7 239 0.0 9.7 0.00 1.02 0.00 84 1009.2
20260506110520 7 0 1.6 9.7 0.00 1.02 0.00 84 1009.1
20260506110035 7 252 0.0 11.3 0.00 1.02 0.00 84 1009.0
20260506105515 7 267 3.2 11.3 0.00 1.02 0.00 84 1009.1
20260506105014 7 213 1.6 11.3 0.00 1.02 0.00 84 1009.1
20260506104533 7 276 3.2 12.9 0.00 1.02 0.00 83 1009.0
20260506104014 7 169 3.2 12.9 0.00 1.02 0.00 83 1009.0
20260506103516 7 244 3.2 14.5 0.00 1.02 0.00 83 1008.9
20260506103030 7 205 3.2 14.5 0.00 1.02 0.00 83 1009.0
20260506102517 7 198 4.8 12.9 0.00 1.02 0.00 83 1009.0
20260506102016 7 165 1.6 12.9 0.00 1.02 0.00 83 1008.8
20260506101547 7 258 3.2 11.3 0.00 1.02 0.00 82 1008.7
20260506101016 7 169 3.2 12.9 0.00 1.02 0.00 82 1008.6
20260506100518 7 205 3.2 12.9 0.00 1.02 0.00 82 1008.6
20260506100035 7 217 4.8 11.3 0.00 1.02 0.00 82 1008.7
20260506095515 7 236 1.6 11.3 0.00 1.02 0.00 82 1008.4
20260506095015 7 244 3.2 11.3 0.00 1.02 0.00 82 1008.4
20260506094536 7 177 3.2 11.3 0.00 1.02 0.00 82 1008.3
20260506094014 7 210 4.8 14.5 0.00 1.02 0.00 82 1008.5
20260506093515 7 188 6.4 16.1 0.00 1.02 0.00 82 1008.6
20260506093033 7 201 6.4 16.1 0.00 1.02 0.00 82 1008.5
20260506092514 7 212 3.2 11.3 0.00 1.02 0.00 81 1008.4
20260506092019 7 167 1.6 9.7 0.00 1.02 0.00 82 1008.5
20260506091530 7 215 4.8 14.5 0.00 1.02 0.00 81 1008.5
20260506091015 7 230 4.8 16.1 0.00 1.02 0.00 81 1008.7
20260506090515 7 191 4.8 16.1 0.00 1.02 0.00 81 1008.7
20260506090030 7 167 4.8 14.5 0.00 1.02 0.00 80 1008.6
20260506085515 7 194 4.8 14.5 0.00 1.02 0.00 81 1008.8
20260506085016 7 216 3.2 14.5 0.00 1.02 0.00 80 1008.9
20260506084533 7 196 3.2 12.9 0.00 1.02 0.00 80 1008.8
20260506084015 7 225 4.8 12.9 0.00 1.02 0.00 80 1008.3
20260506083516 7 194 3.2 16.1 0.00 1.02 0.00 80 1008.3
20260506083034 7 215 6.4 17.7 0.00 1.02 0.00 80 1008.6
20260506082516 7 218 6.4 19.3 0.00 1.02 0.00 79 1008.6
20260506082021 8 219 4.8 20.9 0.00 1.02 0.00 80 1008.5
20260506081534 8 205 6.4 20.9 0.00 1.02 0.00 80 1008.5
20260506081018 8 159 8.0 19.3 0.00 1.02 0.00 80 1008.5
20260506080520 8 226 4.8 19.3 0.00 1.02 0.00 80 1008.5
20260506073516 8 208 6.4 19.3 0.00 1.02 0.00 81 1007.9
20260506073038 8 200 8.0 19.3 0.00 1.02 0.00 81 1007.9
20260506072518 8 180 8.0 22.5 0.00 1.02 0.00 81 1008.0
20260506072015 8 189 8.0 22.5 0.00 1.02 0.00 82 1008.2
20260506071530 8 233 8.0 19.3 0.00 1.02 0.00 82 1008.1
20260506071015 8 168 11.3 19.3 0.00 1.02 0.00 82 1007.8
20260506070515 8 193 8.0 14.5 0.00 1.02 0.00 83 1007.9
20260506062016 9 175 6.4 25.7 0.00 1.02 0.00 83 1007.5
20260506061534 9 188 8.0 25.7 0.00 1.02 0.00 83 1007.5
20260506061019 9 209 8.0 17.7 0.00 1.02 0.00 82 1007.5
20260506060519 9 105 8.0 19.3 0.00 1.02 0.00 83 1007.5
20260506051017 10 215 6.4 16.1 0.00 1.02 0.00 83 1007.2
20260506050523 10 234 6.4 16.1 0.00 1.02 0.00 83 1007.1
20260506045019 10 200 8.0 24.1 0.00 1.02 0.00 83 1006.9
20260506044535 10 238 6.4 24.1 0.00 1.02 0.00 83 1006.7
20260506044021 10 176 8.0 22.5 0.00 1.02 0.00 83 1006.7
20260506043517 10 202 8.0 16.1 0.00 1.02 0.00 83 1007.1
20260506043033 10 165 6.4 17.7 0.03 1.02 0.00 82 1007.2
20260506042517 10 205 8.0 17.7 0.03 1.02 0.00 82 1007.0
20260506042022 10 164 4.8 17.7 0.03 1.02 0.00 81 1006.7
20260506041545 10 180 6.4 20.9 0.03 1.02 0.00 81 1006.6
20260506041017 10 170 9.7 20.9 0.05 1.02 0.00 80 1006.3
20260506040522 10 207 8.0 17.7 0.05 1.02 0.00 80 1006.6
20260506040038 10 247 4.8 19.3 0.05 1.02 0.00 80 1006.3
20260506035515 10 182 8.0 19.3 0.05 1.02 1.02 79 1006.2
20260506035014 11 300 4.8 19.3 0.08 1.02 1.02 80 1006.2
20260506034530 11 301 4.8 19.3 0.08 1.02 1.02 80 1005.9
20260506034013 11 186 6.4 17.7 0.08 1.02 1.02 80 1005.9
20260506033514 11 172 8.0 19.3 0.10 1.02 1.02 80 1005.9
20260506033034 11 228 8.0 19.3 0.08 0.99 0.99 79 1005.9
20260506032518 11 173 8.0 19.3 0.10 0.99 0.99 78 1006.0
20260506032014 11 240 8.0 20.9 0.10 0.99 0.99 78 1005.9
20260506031531 11 223 6.4 20.9 0.10 0.99 0.99 77 1006.0
20260506031014 11 244 9.7 27.4 0.08 0.97 0.97 76 1005.9
20260506030513 11 241 12.9 27.4 0.08 0.97 0.97 76 1005.9
20260506030033 12 223 9.7 25.7 0.10 0.97 0.97 77 1005.6
20260506025515 12 259 8.0 20.9 0.10 0.97 0.97 78 1005.7
20260506025016 12 219 4.8 16.1 0.08 0.94 0.94 77 1005.7
20260506024537 12 263 6.4 20.9 0.08 0.94 0.94 77 1005.6
20260506024016 12 196 4.8 20.9 0.08 0.94 0.94 77 1005.4
20260506023513 13 109 6.4 20.9 0.05 0.91 0.91 76 1005.5
20260506023029 13 304 6.4 20.9 0.05 0.91 0.91 75 1005.3
20260506022514 13 309 3.2 24.1 0.03 0.89 0.89 75 1005.2
20260506022015 13 219 3.2 24.1 0.03 0.89 0.89 75 1004.9
20260506021531 14 331 4.8 24.1 0.03 0.89 0.89 74 1004.7
20260506021013 14 256 4.8 14.5 0.03 0.89 0.89 74 1004.6
20260506020513 14 275 3.2 14.5 0.03 0.89 0.89 73 1004.6
20260506020030 14 281 4.8 14.5 0.00 0.86 0.86 72 1004.5
20260506015514 15 217 4.8 12.9 0.00 0.86 0.86 72 1004.4
20260506015014 15 225 3.2 8.0 0.00 0.86 0.86 72 1004.2
20260506014544 15 211 1.6 8.0 0.00 0.86 0.86 73 1004.0
20260506014013 15 210 3.2 8.0 0.00 0.86 0.86 73 1003.9
20260506013513 15 0 3.2 8.0 0.00 0.86 0.86 73 1003.8
20260506013034 15 200 1.6 8.0 0.00 0.86 0.86 74 1003.7
20260506012513 15 210 3.2 17.7 0.00 0.86 0.86 74 1003.8
20260506012012 15 217 3.2 17.7 0.00 0.86 0.86 73 1003.8
20260506011539 15 178 1.6 16.1 0.00 0.86 0.86 73 1003.7
20260506011014 16 215 6.4 16.1 0.00 0.86 0.86 71 1003.6
20260506010515 16 296 4.8 14.5 0.00 0.86 0.86 71 1003.4
20260506010030 16 204 3.2 14.5 0.00 0.86 0.86 71 1003.4
20260506005513 16 231 3.2 14.5 0.00 0.86 0.86 71 1003.4
20260506005017 16 173 4.8 14.5 0.00 0.86 0.86 71 1003.2
20260506004539 16 252 4.8 17.7 0.00 0.86 0.86 71 1003.2
20260506004016 16 265 4.8 19.3 0.00 0.86 0.86 70 1003.0
20260506003514 16 260 4.8 19.3 0.00 0.86 0.86 71 1003.1
20260506003031 16 219 4.8 17.7 0.00 0.86 0.86 70 1003.1
20260506002513 16 260 6.4 19.3 0.00 0.86 0.86 70 1003.0
20260506002013 16 210 6.4 19.3 0.00 0.86 0.86 70 1002.8
20260506001534 16 215 6.4 16.1 0.00 0.86 0.86 70 1002.7
20260506001014 17 177 8.0 24.1 0.00 0.86 0.86 70 1002.6
20260506000514 17 243 8.0 24.1 0.00 0.86 0.86 70 1002.7
20260506000040 17 210 3.2 12.9 0.00 0.86 0.86 69 1002.5
20260505235515 17 231 3.2 17.7 0.00 0.86 0.86 68 1002.4
20260505235014 17 219 3.2 20.9 0.00 0.86 0.86 67 1002.3
20260505234531 17 152 8.0 20.9 0.00 0.86 0.86 66 1002.3
20260505234014 17 243 6.4 16.1 0.00 0.86 0.86 66 1002.2
20260505233516 17 204 4.8 16.1 0.00 0.86 0.86 66 1002.1
20260505233032 17 225 6.4 17.7 0.00 0.86 0.86 66 1002.1
20260505232515 17 250 4.8 17.7 0.00 0.86 0.86 66 1002.0
20260505232015 17 192 6.4 24.1 0.00 0.86 0.86 66 1001.8
20260505231529 17 226 4.8 24.1 0.00 0.86 0.86 66 1001.7
20260505231016 17 212 6.4 22.5 0.00 0.86 0.86 66 1001.6
20260505230519 17 213 8.0 22.5 0.00 0.86 0.86 65 1001.6
20260505230038 18 239 6.4 27.4 0.00 0.86 0.86 65 1001.6
20260505225515 18 230 6.4 27.4 0.00 0.86 0.86 64 1001.6
20260505225015 18 263 11.3 27.4 0.00 0.86 0.86 64 1001.5
20260505224538 18 192 6.4 20.9 0.00 0.86 0.86 65 1001.2
20260505224014 18 195 9.7 20.9 0.00 0.86 0.86 65 1001.2
20260505223517 18 261 9.7 19.3 0.00 0.86 0.86 65 1001.0
20260505223040 18 219 6.4 16.1 0.00 0.86 0.86 65 1000.9
20260505222515 18 177 6.4 19.3 0.00 0.86 0.86 65 1000.9
20260505222016 18 250 4.8 19.3 0.00 0.86 0.86 65 1000.8
20260505221529 18 248 1.6 16.1 0.00 0.86 0.86 64 1000.7
20260505221015 18 188 4.8 16.1 0.00 0.86 0.86 62 1000.6
20260505220515 18 202 8.0 17.7 0.00 0.86 0.86 62 1000.6
20260505220039 18 184 6.4 24.1 0.00 0.86 0.86 63 1000.5
20260505215516 18 261 6.4 24.1 0.00 0.86 0.86 63 1000.6
20260505215015 18 221 8.0 19.3 0.00 0.86 0.86 62 1000.7
20260505214551 18 194 11.3 22.5 0.00 0.86 0.86 62 1000.5
20260505214015 18 138 9.7 29.0 0.00 0.86 0.86 62 1000.5
20260505213513 18 202 14.5 29.0 0.00 0.86 0.86 61 1000.2
20260505213048 18 216 8.0 24.1 0.00 0.86 0.86 61 1000.1
20260505212517 19 248 9.7 30.6 0.00 0.86 0.86 62 1000.0
20260505212017 19 190 12.9 30.6 0.00 0.86 0.86 61 999.8
20260505211533 19 180 12.9 30.6 0.00 0.86 0.86 61 999.6
20260505211018 19 206 11.3 29.0 0.00 0.86 0.86 61 999.5
20260505210516 18 183 9.7 32.2 0.00 0.86 0.86 62 999.5
20260505210033 18 218 11.3 40.2 0.00 0.86 0.86 62 999.4
20260505205519 18 171 16.1 40.2 0.00 0.86 0.86 63 999.2
20260505205021 18 241 14.5 35.4 0.00 0.86 0.86 63 999.3
20260505204537 18 240 12.9 33.8 0.00 0.86 0.86 63 999.5
20260505204015 19 227 9.7 33.8 0.00 0.86 0.86 64 999.6
20260505203517 19 177 14.5 33.8 0.00 0.86 0.86 64 999.6
20260505203041 19 217 12.9 32.2 0.00 0.86 0.86 64 999.4
20260505202517 19 260 12.9 32.2 0.00 0.86 0.86 64 999.3
20260505202016 19 177 11.3 32.2 0.00 0.86 0.86 64 999.3
20260505201547 19 178 11.3 32.2 0.00 0.86 0.86 64 999.3
20260505201017 19 208 9.7 32.2 0.00 0.86 0.86 64 999.3
20260505200515 19 178 11.3 38.6 0.00 0.86 0.86 66 999.1
20260505200036 19 187 14.5 38.6 0.00 0.86 0.86 66 999.1
20260505195515 19 161 14.5 33.8 0.00 0.86 0.86 66 999.0
20260505195017 19 245 12.9 27.4 0.00 0.86 0.86 66 999.1
20260505194534 19 187 9.7 27.4 0.00 0.86 0.86 66 999.3
20260505194020 19 193 11.3 33.8 0.00 0.86 0.86 67 999.2
20260505193518 18 171 12.9 33.8 0.00 0.86 0.86 68 999.1
20260505193044 18 154 12.9 30.6 0.00 0.86 0.86 69 999.0
20260505192517 18 210 11.3 24.1 0.00 0.86 0.86 71 999.2
20260505192015 18 159 9.7 24.1 0.00 0.86 0.86 72 999.2
20260505191534 17 166 9.7 24.1 0.00 0.86 0.86 74 999.1
20260505191018 17 223 8.0 19.3 0.00 0.86 0.86 76 999.2
20260505190517 17 194 9.7 19.3 0.00 0.86 0.86 76 999.2
20260505190048 17 119 8.0 16.1 0.03 0.86 0.86 76 999.2
20260505185520 17 246 6.4 20.9 0.03 0.86 0.86 77 999.3
20260505185016 17 169 8.0 27.4 0.05 0.86 0.86 78 999.3
20260505184535 17 171 6.4 29.0 0.05 0.86 0.86 79 999.3
20260505184017 17 202 9.7 29.0 0.15 0.86 0.86 79 999.4
20260505183515 17 203 8.0 17.7 0.38 0.86 0.86 80 999.3
20260505183047 16 219 8.0 17.7 0.53 0.86 0.86 82 999.3
20260505182520 16 227 6.4 22.5 0.58 0.86 0.86 84 999.2
20260505182016 16 203 6.4 22.5 0.61 0.86 0.86 86 999.2
20260505181532 15 259 9.7 17.7 0.64 0.86 0.86 86 999.2
20260505181021 15 241 6.4 17.7 0.64 0.86 0.86 86 999.2
20260505180517 15 242 6.4 17.7 0.64 0.86 0.86 85 999.1
20260505180037 15 178 3.2 30.6 0.61 0.84 0.84 85 999.2
20260505175515 15 263 8.0 30.6 0.61 0.84 0.84 84 999.8
20260505175023 15 304 4.8 29.0 0.58 0.81 0.81 83 999.9
20260505174540 15 236 9.7 35.4 0.56 0.79 0.79 81 999.8
20260505174016 16 302 12.9 37.0 0.46 0.69 0.69 78 999.8
20260505173515 17 314 16.1 37.0 0.23 0.46 0.46 74 999.6
20260505173040 18 331 6.4 17.7 0.08 0.30 0.30 71 999.3
20260505172515 19 250 3.2 16.1 0.05 0.28 0.28 68 998.9
20260505172025 19 18 9.7 22.5 0.00 0.23 0.23 62 999.0
20260505171539 19 274 4.8 24.1 0.00 0.23 0.23 58 998.7
20260505171016 19 273 8.0 24.1 0.00 0.23 0.23 58 998.8
20260505170519 19 218 6.4 17.7 0.00 0.23 0.23 59 998.9
20260505170041 19 212 3.2 19.3 0.00 0.23 0.23 59 998.9
20260505165516 20 214 8.0 24.1 0.00 0.23 0.23 58 998.9
20260505165019 20 187 6.4 24.1 0.00 0.23 0.23 58 998.7
20260505164537 20 182 11.3 25.7 0.00 0.23 0.23 58 998.8
20260505164016 19 212 12.9 25.7 0.00 0.23 0.23 58 998.8
20260505163516 19 146 9.7 33.8 0.00 0.23 0.23 59 998.9
20260505163033 18 115 9.7 35.4 0.00 0.23 0.23 59 999.0
20260505162516 18 186 14.5 35.4 0.00 0.23 0.23 59 999.1
20260505162016 18 163 8.0 25.7 0.00 0.23 0.23 60 999.4
20260505161535 18 213 9.7 32.2 0.00 0.23 0.23 60 999.4
20260505161016 18 198 12.9 32.2 0.00 0.23 0.23 61 999.6
20260505160516 18 164 14.5 30.6 0.00 0.23 0.23 62 999.8